Hourly Weather Nimes

Today, 2 October, Friday

Time Temperature Precipitation Wind Pressure Humidity
00:00 +18°C° 0 mm 2 mps 743 mmHg 62%
01:00 +18°C° 0 mm 3 mps 743 mmHg 64%
02:00 +18°C° 0 mm 3 mps 742 mmHg 66%
03:00 +18°C° 0 mm 4 mps 741 mmHg 67%
04:00 +17°C° 0.4 mm 5 mps 740 mmHg 73%
05:00 +17°C° 0.4 mm 6 mps 739 mmHg 79%
06:00 +17°C° 0.4 mm 7 mps 738 mmHg 85%
07:00 +18°C° 1.9 mm 8 mps 737 mmHg 83%
08:00 +20°C° 1.9 mm 8 mps 736 mmHg 80%
09:00 +21°C° 1.9 mm 9 mps 735 mmHg 77%
10:00 +21°C° 0.8 mm 9 mps 735 mmHg 77%
11:00 +19°C° 0.8 mm 9 mps 735 mmHg 77%
12:00 +19°C° 0.8 mm 9 mps 735 mmHg 77%
13:00 +18°C° 0.3 mm 8 mps 736 mmHg 75%
14:00 +17°C° 0.3 mm 7 mps 736 mmHg 73%
15:00 +15°C° 0.3 mm 6 mps 736 mmHg 70%
16:00 +14°C° 0.4 mm 5 mps 736 mmHg 74%
17:00 +13°C° 0.4 mm 5 mps 736 mmHg 78%
18:00 +12°C° 0.4 mm 4 mps 737 mmHg 82%
19:00 +12°C° 0.3 mm 4 mps 737 mmHg 81%
20:00 +12°C° 0.3 mm 3 mps 738 mmHg 81%
21:00 +12°C° 0.3 mm 3 mps 739 mmHg 81%
22:00 +12°C° 0.1 mm 3 mps 739 mmHg 81%
23:00 +12°C° 0.1 mm 2 mps 739 mmHg 81%

Tomorrow, 3 October, Saturday

Time Temperature Precipitation Wind Pressure Humidity
00:00 +12°C° 0.1 mm 2 mps 739 mmHg 82%
01:00 +12°C° 0 mm 2 mps 740 mmHg 82%
02:00 +10°C° 0 mm 3 mps 740 mmHg 82%
03:00 +10°C° 0 mm 3 mps 741 mmHg 82%
04:00 +10°C° 0.1 mm 2 mps 741 mmHg 82%
05:00 +10°C° 0.1 mm 2 mps 741 mmHg 82%
06:00 +11°C° 0.1 mm 1 mps 741 mmHg 83%
07:00 +12°C° 0.1 mm 2 mps 741 mmHg 78%
08:00 +13°C° 0.1 mm 3 mps 741 mmHg 74%
09:00 +14°C° 0.1 mm 4 mps 742 mmHg 70%
10:00 +15°C° 0.2 mm 4 mps 742 mmHg 68%
11:00 +15°C° 0.2 mm 4 mps 742 mmHg 66%
12:00 +17°C° 0.2 mm 4 mps 741 mmHg 64%
13:00 +17°C° 0 mm 4 mps 741 mmHg 62%
14:00 +17°C° 0 mm 5 mps 741 mmHg 60%
15:00 +17°C° 0 mm 5 mps 741 mmHg 57%
16:00 +16°C° 0.1 mm 5 mps 741 mmHg 62%
17:00 +15°C° 0.1 mm 5 mps 742 mmHg 67%
18:00 +14°C° 0.1 mm 5 mps 742 mmHg 72%
19:00 +14°C° 0.1 mm 5 mps 743 mmHg 71%
20:00 +14°C° 0.1 mm 6 mps 744 mmHg 70%
21:00 +14°C° 0.1 mm 6 mps 744 mmHg 69%
22:00 +14°C° 0 mm 6 mps 745 mmHg 69%
23:00 +14°C° 0 mm 5 mps 745 mmHg 69%

Day after tomorrow, 4 October, Sunday

Time Temperature Precipitation Wind Pressure Humidity
00:00 +13°C° 0 mm 5 mps 745 mmHg 69%
01:00 +13°C° 0 mm 4 mps 745 mmHg 70%
02:00 +12°C° 0 mm 3 mps 745 mmHg 72%
03:00 +12°C° 0 mm 2 mps 746 mmHg 73%
04:00 +13°C° 0 mm 1 mps 746 mmHg 72%
05:00 +13°C° 0 mm 1 mps 745 mmHg 71%
06:00 +13°C° 0 mm 1 mps 745 mmHg 70%
07:00 +14°C° 0 mm 1 mps 745 mmHg 66%
08:00 +16°C° 0 mm 2 mps 745 mmHg 61%
09:00 +17°C° 0 mm 2 mps 745 mmHg 57%
10:00 +18°C° 0 mm 2 mps 745 mmHg 54%
11:00 +19°C° 0 mm 2 mps 745 mmHg 50%
12:00 +20°C° 0 mm 2 mps 745 mmHg 47%
13:00 +19°C° 0.2 mm 3 mps 745 mmHg 49%
14:00 +19°C° 0.2 mm 3 mps 745 mmHg 51%
15:00 +19°C° 0.2 mm 3 mps 745 mmHg 54%
16:00 +18°C° 0.3 mm 3 mps 745 mmHg 58%
17:00 +16°C° 0.3 mm 3 mps 746 mmHg 63%
18:00 +14°C° 0.3 mm 3 mps 746 mmHg 67%
19:00 +13°C° 0 mm 3 mps 747 mmHg 70%
20:00 +12°C° 0 mm 3 mps 747 mmHg 73%
21:00 +12°C° 0 mm 3 mps 748 mmHg 76%
22:00 +11°C° 0 mm 3 mps 748 mmHg 76%
23:00 +11°C° 0 mm 3 mps 748 mmHg 77%

5 October, Monday

Time Temperature Precipitation Wind Pressure Humidity
00:00 +12°C° 0 mm 2 mps 748 mmHg 77%
01:00 +12°C° 0 mm 2 mps 749 mmHg 78%
02:00 +12°C° 0 mm 2 mps 749 mmHg 79%
03:00 +12°C° 0 mm 2 mps 749 mmHg 80%
04:00 +10°C° 0 mm 2 mps 749 mmHg 80%
05:00 +10°C° 0 mm 2 mps 750 mmHg 80%
06:00 +10°C° 0 mm 2 mps 750 mmHg 81%
07:00 +13°C° 0 mm 2 mps 750 mmHg 74%
08:00 +14°C° 0 mm 3 mps 751 mmHg 67%
09:00 +17°C° 0 mm 4 mps 751 mmHg 60%
10:00 +18°C° 0 mm 4 mps 751 mmHg 53%
11:00 +19°C° 0 mm 4 mps 751 mmHg 47%
12:00 +20°C° 0 mm 3 mps 752 mmHg 40%
13:00 +20°C° 0 mm 4 mps 752 mmHg 39%
14:00 +21°C° 0 mm 4 mps 752 mmHg 39%
15:00 +21°C° 0 mm 4 mps 752 mmHg 38%
16:00 +19°C° 0 mm 5 mps 752 mmHg 45%
17:00 +16°C° 0 mm 5 mps 753 mmHg 52%
18:00 +15°C° 0 mm 5 mps 753 mmHg 59%
19:00 +15°C° 0 mm 5 mps 753 mmHg 62%
20:00 +14°C° 0 mm 4 mps 754 mmHg 64%
21:00 +14°C° 0 mm 4 mps 754 mmHg 67%
22:00 +13°C° 0 mm 3 mps 754 mmHg 70%
23:00 +14°C° 0 mm 2 mps 754 mmHg 72%

6 October, Tuesday

Time Temperature Precipitation Wind Pressure Humidity
00:00 +13°C° 0 mm 2 mps 754 mmHg 75%
01:00 +13°C° 0 mm 2 mps 754 mmHg 76%
02:00 +12°C° 0 mm 2 mps 754 mmHg 77%
03:00 +12°C° 0 mm 2 mps 754 mmHg 78%
04:00 +12°C° 0 mm 1 mps 754 mmHg 76%
05:00 +13°C° 0 mm 1 mps 754 mmHg 75%
06:00 +13°C° 0 mm 1 mps 754 mmHg 73%
07:00 +15°C° 0 mm 1 mps 754 mmHg 69%
08:00 +16°C° 0 mm 1 mps 754 mmHg 65%
09:00 +17°C° 0 mm 2 mps 754 mmHg 61%
10:00 +18°C° 0 mm 2 mps 754 mmHg 61%
11:00 +18°C° 0 mm 3 mps 754 mmHg 62%
12:00 +18°C° 0 mm 3 mps 754 mmHg 62%
13:00 +19°C° 0 mm 3 mps 754 mmHg 61%
14:00 +19°C° 0 mm 3 mps 753 mmHg 60%
15:00 +20°C° 0 mm 3 mps 753 mmHg 60%
16:00 +19°C° 0 mm 3 mps 754 mmHg 65%
17:00 +18°C° 0 mm 3 mps 754 mmHg 71%
18:00 +17°C° 0 mm 2 mps 754 mmHg 76%
19:00 +17°C° 0 mm 3 mps 755 mmHg 76%
20:00 +17°C° 0 mm 3 mps 755 mmHg 75%
21:00 +15°C° 0 mm 4 mps 755 mmHg 75%
22:00 +16°C° 0 mm 3 mps 755 mmHg 76%
23:00 +14°C° 0 mm 3 mps 756 mmHg 77%

7 October, Wednesday

Time Temperature Precipitation Wind Pressure Humidity
00:00 +14°C° 0 mm 3 mps 756 mmHg 79%
01:00 +13°C° 0 mm 3 mps 756 mmHg 79%
02:00 +13°C° 0 mm 3 mps 756 mmHg 79%
03:00 +12°C° 0 mm 3 mps 756 mmHg 79%
04:00 +12°C° 0 mm 3 mps 756 mmHg 78%
05:00 +12°C° 0 mm 3 mps 756 mmHg 78%
06:00 +12°C° 0 mm 3 mps 756 mmHg 78%
07:00 +14°C° 0 mm 3 mps 756 mmHg 69%
08:00 +17°C° 0 mm 4 mps 756 mmHg 61%
09:00 +19°C° 0 mm 4 mps 756 mmHg 52%
10:00 +20°C° 0 mm 4 mps 756 mmHg 49%
11:00 +20°C° 0 mm 3 mps 756 mmHg 45%
12:00 +21°C° 0 mm 3 mps 756 mmHg 42%
13:00 +22°C° 0 mm 3 mps 755 mmHg 42%
14:00 +22°C° 0 mm 3 mps 755 mmHg 41%
15:00 +23°C° 0 mm 2 mps 755 mmHg 41%
16:00 +21°C° 0 mm 2 mps 755 mmHg 46%
17:00 +20°C° 0 mm 2 mps 755 mmHg 50%
18:00 +19°C° 0 mm 2 mps 756 mmHg 55%
19:00 +18°C° 0 mm 2 mps 756 mmHg 60%
20:00 +18°C° 0 mm 2 mps 756 mmHg 65%
21:00 +18°C° 0 mm 3 mps 756 mmHg 70%
22:00 +17°C° 0 mm 3 mps 756 mmHg 72%
23:00 +17°C° 0 mm 2 mps 756 mmHg 75%
Show more